Погода Тарко-Сале

Погода Тарко-Сале : погода сейчас, прогноз погоды и архив. Всё, что Вы хотите узнать о погоде Тарко-Сале!

Хотите узнать прогноз погоды Тарко-Сале? Тогда Вам сюда: Погода Тарко-Сале

Поиск расширенной информации на нашем сайте:

Полезная информация:

Другие новости

Новости СМИ2

Главная страница сайта

Новости сайта

03.07.2017

Напоминаем, что на нашем специализированном сайте Метеоцентр.Азия вы можете получить высокодетализированные автоматические прогнозы погоды по пунктам России, СНГ и мира в авиационном формате (включающие направление и скорость ветра, видимость, явления погоды, количество и форму облачности, нижнюю и верхнюю границу облачности).

Рекомендуем:

Погода Тарко-Сале - сегодня

Время (UTC), дата Ветер
(°,м/с) 
Видим.   Явления Облачность Т
(°С)
Тd
(°С)
f(%) Тe
(°С)
Pmin
(гПа)
dP
(гПа)
Po
(мм)
O2
(г/м3)
Тmin Tmax R s Состояние
почвы
09 15.09.19 110 (В) 10 км    4/0 средняя, верхняя 
[Ac trans|Cs]
+7.5 -0.4 57 +7  1011.9  -1.2  757  297           
12 15.09.19 120 (ЮВ) 10 км    10/0 средняя, верхняя 
[Ac As|Cs]
+6.8 -1 57 +7  1010.7  -1.2  756  297           
15 15.09.19 100 (В) 4000 м  слаб. дождь  10/8 330 м средняя 
[Sc|As op]
+4.1 +0.5 77 +4  1009  -1.7  754  299    +7.7  0.0     
18 15.09.19 100 (В) 4000 м  слаб. дождь  10/10 450 м 
[Sc]
+3.1 +2.5 96 +3  1005.8  -3.2  752  299           
21 15.09.19 130 (ЮВ) 4000 м  слаб. ливневой дождь  10/10 630 м кучево-дожд. 
[Cb cap]
+4.9 +4.9 100 +5  1003.5  -2.3  750  296           
00 16.09.19 120 (ЮВ) 4000 м  слаб. ливневой дождь  10/8 500 м кучево-дожд., средняя 
[Cb cap|As op]
+6.1 +6.1 100 +7  1002.2  -1.3  749  294           
03 16.09.19 130 (ЮВ) 2000 м  дымка{ливн. осадки}  10/0 средняя 
[As trans]
+7.7 +7.7 100 +9  1000.7  -1.5  748  292  +3      влажная 
06 16.09.19 130 (ЮВ) 2000 м  дымка{ливн. осадки}  10/0 средняя 
[As trans]
+10.3 +10.3 100 +12  998.5  -2.1  747  288           
09 16.09.19 220 (ЮЗ) 10 км    10/8 330 м средняя 
[Sc|Ac As]
+14.4 +12.3 87 +19  999.2  0.7  747  284           
12 16.09.19 220 (ЮЗ) 10 км    10/3 600 м кучево-дожд., средняя, верхняя 
[Cb cap|Ac trans|Ci fib]
+14.1 +11 82 +18  1000  0.8  748  284           
15 16.09.19 180 (Ю) 10 км    10/1 600 м кучево-дожд., средняя, верхняя 
[Cb cap|Ac trans|Ci fib]
+10.2 +9.6 96 +12  1000.7  0.7  748  289    +15.3       
18 16.09.19 120 (ЮВ) 4000 м  слаб. дождь  10/0 средняя 
[As op]
+8.9 +8.8 99 +10  999.8  -0.9  748  290           
21 16.09.19 130 (ЮВ) 4000 м  дымка{дождь}  10/0 средняя, верхняя 
[Ac As|Ci fib]
+9.8 +9.8 100 +12  997.5  -2.3  746  288           
00 17.09.19 190 (Ю) 10 км  {ливн. осадки, дождь}  10/8 210 м кучево-дожд., средняя 
[Cb cap|As op]
+10.6 +10.6 100 +12  996.6  -0.9  745  287           
03 17.09.19 270 (З) 10 км  {ливн. осадки}  10/8 420 м средняя 
[Sc diur, vesp|Ac As]
+9.1 +9 99 +10  997.3  0.7  746  289  +8.9       
06 17.09.19 300 (СЗ) 10 км  {ливн. осадки}  10/6 270 м средняя 
[Sc|Ac As]
+10.2 +8.5 89 +11  997.9  0.6  746  288           
09 17.09.19 тихо ()   10 км    10/4 600 м кучево-дожд., средняя 
[Cb cap|Ac As]
+11.2 +7.4 77 +11  997.9  746  288           
12 17.09.19 320 (СЗ) 10 км  {ливн. осадки}  10/8 1230 м кучево-дожд., средняя 
[Cb cap|As op]
+10 +8.2 89 +11  997.5  -0.4  746  288           
15 17.09.19 320 (СЗ) 4000 м  слаб. ливневой дождь  10/6 1140 м кучево-дожд., средняя 
[Cb cap|As op]
+8.8 +8.7 99 +10  997.1  -0.4  746  289    +11.2  0.5     
18 17.09.19 250 (З) 10 км  {ливн. осадки}  8/4 600 м кучево-дожд., средняя 
[Cb cap|Ac As]
+7.2 +7.2 100 +8  997.2  746  291           
21 17.09.19 190 (Ю) 10 км    10/0 средняя 
[Ac und]
+6.1 +6.1 100 +7  997.4  0.2  746  293           
00 18.09.19 240 (ЮЗ) 10 км  {дождь}  10/0 средняя 
[Ac As]
+5.8 +5.5 98 +7  998.3  0.9  746  294           
03 18.09.19 220 (ЮЗ) 10 км    10/0 средняя, верхняя 
[Ac As|Ci fib]
+5.9 +5.6 98 +7  999.6  1.4  747  294  +4.6    0.9    влажная 
06 18.09.19 170 (Ю) 10 км    10/0 средняя, верхняя 
[Ac trans|Ci fib]
+9.5 +6.2 80 +11  1000.6  748  290           
09 18.09.19 170 (Ю) 10 км    8/3 600 м кучево-дожд., средняя, верхняя 
[Cb cap|Ac trans|Ci fib]
+11.7 +6.8 72 +13  1001.5  0.9  749  288           
Время (UTC), дата Ветер
(°,м/с) 
Видим.   Явления Облачность Т
(°С)
Тd
(°С)
f(%) Тe
(°С)
Pmin
(гПа)
dP
(гПа)
Po
(мм)
O2
(г/м3)
Тmin Tmax R s Состояние
почвы

Для получения пояснительной информации подведите курсор к названию столбца.

ПОГОДА Тарко-Сале - архив

Всё, что Вы хотите узнать о погоде Тарко-Сале - удобно и подробно!

Выберите нужную дату (начиная с 1 января 2018* года) и нажмите кнопку "Найти".
Будут отображены архивные сводки погоды по пункту Тарко-Сале, начиная с указанной даты.


Отображать данные в формате CSV (для использования в таблицах Excel)


Внимание! Наш архив погоды предназначен исключительно для личного некоммерческого использования в познавательных целях. Если Вам необходимы официальные справки о состоянии погоды (для производственных, юридических, коммерческих и т.п. целей), обращайтесь в органы Росгидромета.

*Примечание: данная дата относится к архиву по метеостанциям СССР (Россия, СНГ, Балтия).
Архив по метеостанциям Зарубежной Европы и Азии (кроме Китая) хранится 10 дней, по другим регионам земного шара (Китай, Африка, Америка, Австралия, Океания) - 1 день.

Тарко-Сале - район местоположения метеостанции


Название, широта, долгота, высота метеостанции:
Тарко-Сале 64.9°ш. 77.8°д. 27 м над ур. моря [Российская Федерация]

Дополнительная информация

В oтличие oт бoльшинства пoгoдных сайтoв мы публикуем пoдрoбную метеoинфoрмацию в детальнoм прoфессиoнальнoм фoрмате.

Характеристики температуры и влажнoсти вoздуха измеряются на высoте 2 м в тени вдали oт зданий и деревьев.
Скoрoсть ветра измеряется на высoте 10 м (на урoвне рoста челoвека скoрoсть ветра ниже в 1.5-2 раза). Если метеoстанция нахoдится в гoрoде или в лесу, тo скoрoсть ветра занижена на 2-4 м/с пo сравнению с oткрытым местoм. Скoрoсть ветра над акватoриями крупных рек и oзёр, а также на вершинах хoлмoв на 2-5 м/с выше, чем в oбычных услoвиях.
Атмoсфернoе давление в разных тoчках местнoсти мoжет значительнo oтличаться oт давления на метеoстанции, в зависимoсти oт услoвий рельефа (при пoдъёме на 10 м давление пoнижается примернo на 1 мм рт.ст.).